EW2997 Weather Reports


time (UTC)temp
C
wind
direction
speed
KPH
gust
KPH
rain 1hr
cm
rain 24hr
cm
rain mn
cm
humidity
%
barometer
mb
20260902024919 24 149 0.0 0.0 0.00 0.00 0.00 81 1020.2
20260902021919 24 229 1.6 1.6 0.00 0.00 0.00 84 1019.8
20260902014914 24 229 3.2 3.2 0.00 0.00 0.00 87 1020.2
20260902011909 25 229 3.2 3.2 0.00 0.00 0.00 80 1020.2
20260902004906 27 240 3.2 3.2 0.00 0.00 0.00 68 1019.5
20260902001903 28 236 3.2 3.2 0.00 0.00 0.00 68 1019.0
20260901234901 28 242 4.8 4.8 0.00 0.00 0.00 68 1018.7
20260901231902 29 282 0.0 0.0 0.00 0.00 0.00 63 1018.4
20260901224901 29 270 3.2 3.2 0.00 0.00 0.00 60 1018.4
20260901221859 30 271 3.2 3.2 0.00 0.00 0.00 59 1018.4
20260901214857 31 277 3.2 3.2 0.00 0.00 0.00 53 1018.4
20260901211854 32 276 3.2 3.2 0.00 0.00 0.00 54 1018.4
20260901204849 32 342 3.2 3.2 0.00 0.00 0.00 47 1018.4
20260901201844 32 292 4.8 6.4 0.00 0.00 0.00 54 1018.4
20260901194844 32 311 4.8 6.4 0.00 0.00 0.00 50 1018.7
20260901191843 32 268 3.2 3.2 0.00 0.00 0.00 49 1018.7
20260901184839 32 243 6.4 6.4 0.00 0.00 0.00 54 1019.5
20260901181838 31 6 4.8 4.8 0.00 0.00 0.00 56 1019.8
20260901174837 31 336 6.4 6.4 0.00 0.00 0.00 58 1019.8
20260901171834 30 210 12.9 14.5 0.00 0.00 0.00 65 1019.8
20260901164830 29 246 6.4 6.4 0.00 0.00 0.00 70 1020.2
20260901161825 27 240 3.2 3.2 0.00 0.00 0.00 78 1020.5
20260901154820 27 234 3.2 3.2 0.00 0.00 0.00 78 1020.5
20260901151819 26 230 3.2 3.2 0.00 0.00 0.00 79 1020.8
20260901144816 25 238 3.2 3.2 0.00 0.00 0.00 82 1020.8
20260901141811 25 257 1.6 1.6 0.00 0.00 0.00 81 1021.2
20260901134806 25 192 1.6 1.6 0.00 0.00 0.00 83 1021.2
20260901131805 24 189 0.0 0.0 0.00 0.00 0.00 88 1021.2
20260901124805 22 186 0.0 0.0 0.00 0.00 0.00 93 1021.2
20260901121805 21 186 0.0 0.0 0.00 0.00 0.00 94 1021.5
20260901114801 20 186 0.0 0.0 0.00 0.00 0.00 97 1021.5
20260901111756 20 186 0.0 0.0 0.00 0.00 0.00 97 1021.5
20260901104753 20 185 0.0 0.0 0.00 0.00 0.00 97 1021.2
20260901101751 20 185 0.0 0.0 0.00 0.00 0.00 97 1021.2
20260901094748 20 185 3.2 3.2 0.00 0.00 0.00 97 1020.8
20260901091748 20 185 0.0 0.0 0.00 0.00 0.00 97 1021.2
20260901084743 20 185 0.0 0.0 0.00 0.00 0.00 97 1021.2
20260901081740 20 185 0.0 0.0 0.00 0.00 0.00 97 1021.2
20260901074735 21 185 0.0 0.0 0.00 0.00 0.00 97 1021.2
20260901071730 20 186 0.0 0.0 0.00 0.00 0.00 97 1021.2
20260901064727 20 186 0.0 0.0 0.00 0.00 0.00 97 1021.2
20260901061726 20 186 0.0 0.0 0.00 0.00 0.00 97 1021.5
20260901054722 20 186 0.0 0.0 0.00 0.00 0.00 97 1021.9
20260901051722 20 186 0.0 0.0 0.00 0.00 0.00 97 1022.2
20260901044721 20 181 0.0 0.0 0.00 0.00 0.00 97 1021.5
20260901041716 20 185 0.0 0.0 0.00 0.00 0.00 97 1021.9
20260901034713 20 185 0.0 0.0 0.00 0.10 0.10 96 1022.2
20260901031713 20 185 0.0 0.0 0.00 0.10 0.10 96 1022.2